Simultaneous Nadir Overpasses (SNOs) Predictions

Prediction of SNOs between LANDSAT-8 and METOP-B Satellite Orbit:

Table of predicted SNOs for the next 14.0 days since TLE Epoch: 3/30/2017
Index Date (LANDSAT-8) Time (LANDSAT-8) Lat,Lon (LANDSAT-8) SZA (LANDSAT-8 ) Date (METOP-B) Time (METOP-B) Lat,Lon (METOP-B) SZA (METOP-B ) Distance(km) Time Diff (sec)
1 04/01/2017 09:40:48 81.11, 73.92 78.31 04/01/2017 09:40:19 81.10, 73.93 78.30 0.43 29
2 04/01/2017 10:30:14 -81.12,-118.15 101.66 04/01/2017 10:30:58 -81.13,-118.03 101.63 2.03 44
3 04/04/2017 05:15:02 81.10, 140.34 77.26 04/04/2017 05:14:41 81.10, 140.32 77.24 0.41 21
4 04/04/2017 06:04:28 -81.13, -51.71 102.72 04/04/2017 06:05:20 -81.13, -51.60 102.68 1.79 52
5 04/07/2017 00:49:15 81.10,-153.30 76.20 04/07/2017 00:49:02 81.10,-153.32 76.20 0.28 13
6 04/07/2017 01:38:41 -81.12, 14.68 103.76 04/07/2017 01:39:41 -81.13, 14.80 103.72 2.18 60
7 04/09/2017 20:23:28 81.12, -86.62 75.21 04/09/2017 20:23:23 81.11, -86.60 75.21 0.64 5
8 04/09/2017 21:12:54 -81.14, 81.38 104.75 04/09/2017 21:14:02 -81.14, 81.57 104.70 3.14 68
9 04/12/2017 15:08:17 -81.08, 171.65 105.87 04/12/2017 15:07:07 -81.08, 171.57 105.91 1.58 70




NCC Satellite Simultaneous Nadir Overpasses (SNOs) Prediction Service
